Location: Newark
(7.0858°N, 171.3717°E)
Time: 07:49:48
(UTC+00:00)

Courier 1B - Pass Details

Date: 30 November 2020
Orbit: 962 x 1209 km, 28.3° (Epoch: 20 January)

Event Time Altitude Azimuth Distance (km) Brightness Sun altitude
Rises 10:57:07 0° 300° (WNW) 3,700 - -64.5°
Reaches altitude 10° 11:01:38 10° 328° (NNW) 2,799 - -65.4°
Maximum altitude 11:04:28 13° 353° (N) 2,635 - -66.0°
Drops below altitude 10° 11:07:22 10° 18° (NNE) 2,872 - -66.5°
Sets 11:12:10 0° 46° (NE) 3,894 - -67.4°
